Simultaneous Nadir Overpasses (SNOs) Predictions

Prediction of SNOs between LANDSAT-8 and METOP-B Satellite Orbit:

Table of predicted SNOs for the next 14.0 days since TLE Epoch: 8/27/2016
Index Date (LANDSAT-8) Time (LANDSAT-8) Lat,Lon (LANDSAT-8) SZA (LANDSAT-8 ) Date (METOP-B) Time (METOP-B) Lat,Lon (METOP-B) SZA (METOP-B ) Distance(km) Time Diff (sec)
1 08/27/2016 21:19:46 81.06,-100.80 73.39 08/27/2016 21:18:54 81.06,-100.92 73.36 2.19 52
2 08/27/2016 22:09:11 -81.11, 67.50 106.50 08/27/2016 22:09:32 -81.11, 67.66 106.48 2.86 21
3 08/30/2016 16:54:02 81.07, -34.27 74.43 08/30/2016 16:53:18 81.07, -34.36 74.40 1.48 44
4 08/30/2016 17:43:28 -81.09, 133.69 105.52 08/30/2016 17:43:58 -81.09, 133.51 105.53 3.17 30
5 09/02/2016 12:28:17 81.07, 32.22 75.48 09/02/2016 12:27:41 81.07, 32.20 75.46 0.38 36
6 09/02/2016 13:17:43 -81.10,-159.79 104.46 09/02/2016 13:18:21 -81.09,-159.91 104.46 2.20 38
7 09/05/2016 08:02:33 81.08, 98.69 76.54 09/05/2016 08:02:05 81.08, 98.75 76.53 1.16 28
8 09/05/2016 08:51:59 -81.10, -93.30 103.40 09/05/2016 08:52:45 -81.10, -93.35 103.38 0.88 46
9 09/08/2016 03:36:49 81.08, 165.12 77.61 09/08/2016 03:36:29 81.08, 165.29 77.62 3.09 20




NCC Satellite Simultaneous Nadir Overpasses (SNOs) Prediction Service
